Location: ?????
(55.6500°N, 37.2500°E)
Time: 03:36:36
(UTC+00:00)

USA 229 - Pass Details

Date: 19 May 2025
Orbit: 872 x 1339 km, 63.4° (Epoch: 10 June)

Event Time Altitude Azimuth Distance (km) Brightness Sun altitude
Exits shadow 21:33:30 18° 202° (SSW) 2,127 4.7 -14.4°
Maximum altitude 21:38:02 57° 129° (SE) 1,166 3.7 -14.3°
Drops below altitude 10° 21:44:45 10° 53° (NE) 2,948 6.6 -14.3°
Sets 21:47:37 0° 50° (NE) 3,982 7.4 -14.3°
